< < Back
Terminal Aerodrome Forecast


Current Version              Previous Versions:   1  2  3  4  5  6  7  8  9  

Terminal Aerodrome Forecast

391
FTUS42 KGSP 230500
TAFGSP
TAF
KGSP 230529Z 2306/2406 VRB03KT 3SM BR FEW250
      TEMPO 2306/2310 00000KT 1SM BR
     FM231000 31004KT P6SM FEW250
     FM232300 03005KT P6SM SKC=



Latest METAR

053
SAUS70 KWBC 230800 RRB
MTRGSP
METAR KGSP 230753Z AUTO 23003KT 6SM BR CLR 13/12 A2978 RMK AO2 SLP079
T01280122


USA.gov is the U.S. government's official web portal to all federal, state and local government web resources and services.